#timestamp,LO_Frequency,Hit,StdDev 
1541592015.3,286047000.7,N
1541592035.2,286047003.5,N
1541592055.9,286047003.5,N
1541592075.7,286047003.9,N
1541592095.6,286047003.9,N
1541592115.4,286047001.7,N
1541592135.2,286047001.8,N
1541592155.1,286047004.4,N
1541592156.0,286047004.4,N
1541592175.8,286047001.8,N
1541592195.7,286047006.8,Y
1541592215.5,286047004.4,P
1541592235.3,286047001.7,N
1541592255.2,286047001.4,N
1541592275.0,286047000.0,N
1541592275.9,286047000.0,N
1541592295.8,286046995.1,Y
1541592315.6,286046992.7,P
1541592335.4,286046989.0,N
1541592355.3,286046991.1,N
1541592375.1,286046991.4,N
1541592395.8,286046990.7,N
1541592415.7,286046990.3,N
1541592435.5,286046990.1,N
1541592455.4,286046995.6,N
1541592475.2,286047004.4,N
1541592495.0,286046998.6,N
1541592495.9,286046998.6,N
1541592515.8,286046995.2,N
1541592535.6,286046994.3,N
1541592555.4,286046992.4,N
1541592575.3,286046992.8,N
1541592595.1,286046990.6,N
1541592615.9,286046993.0,N
1541592635.7,286046994.0,N
1541592655.5,286046993.3,N
1541592675.4,286046996.0,N
1541592695.2,286047000.8,N
1541592715.1,286047002.1,N
1541592716.0,286047002.1,N
1541592735.8,286047000.2,N
1541592755.6,286047001.0,N
1541592775.5,286047000.1,N
1541592795.3,286047000.8,N
1541592815.1,286047000.0,N
1541592835.9,286047004.4,N
1541592855.7,286047001.3,N
1541592875.6,286047000.1,N
1541592895.4,286046996.5,N
1541592915.2,286046996.8,N
1541592935.1,286046998.7,N
1541592936.0,286046998.7,N
1541592955.8,286046999.4,N
1541592975.7,286046998.4,N
1541592995.5,286046999.3,N
1541593015.3,286046998.3,N
1541593035.2,286046999.2,N
1541593055.0,286047000.7,N
1541593055.9,286047000.7,N
1541593075.8,286046998.2,N
1541593095.6,286047000.8,N
1541593115.4,286047001.2,N
1541593135.3,286046998.9,N
1541593155.1,286046998.1,N
1541593175.9,286047001.0,N
1541593195.7,286046999.1,N
1541593215.5,286046997.1,N
1541593235.4,286046993.3,Y
1541593255.2,286046993.3,P
1541593275.1,286046993.5,N
1541593276.0,286046993.5,N
1541593295.8,286046995.9,N
1541593315.6,286046993.3,N
1541593335.5,286046998.0,N
1541593355.3,286046997.1,N
1541593375.1,286046997.9,N
1541593395.9,286046994.1,N
1541593415.7,286046992.9,Y
1541593435.6,286046993.6,P
1541593455.4,286046990.7,P
1541593475.2,286046987.3,P
1541593495.1,286046987.6,Y
1541593496.0,286046987.6,P
1541593515.8,286046996.3,N
1541593535.7,286046992.9,N
1541593555.5,286046993.1,N
1541593575.3,286046992.4,N
1541593595.2,286046993.2,N
1541593615.0,286046990.5,Y
1541593615.9,286046990.5,P
1541593635.8,286046998.1,N
1541593655.6,286047003.0,N
1541593675.4,286047005.4,N
1541593695.3,286047006.1,N
1541593715.1,286047006.4,N
1541593716.0,286047006.4,N
1541593735.8,286047004.8,N
1541593755.7,286047003.6,N
1541593775.5,286047002.1,N
1541593795.3,286046999.8,N
1541593815.2,286046998.1,N
1541593835.0,286046998.9,N
1541593835.9,286046998.9,N
1541593855.8,286046997.8,N
1541593875.6,286046997.7,N
1541593895.4,286046997.1,N
1541593915.3,286046995.1,N
1541593935.1,286046996.3,N
1541593955.9,286046994.3,N
1541593975.7,286046995.5,N
1541593995.5,286046995.7,N
1541594015.4,286046995.1,N
1541594035.2,286046996.5,N
1541594055.0,286046997.9,N
1541594055.9,286046997.9,N
1541594075.8,286046995.1,N
1541594095.6,286046997.2,N
1541594115.5,286046998.5,N
1541594135.3,286046999.9,N
1541594155.1,286047001.6,N
1541594175.9,286047004.4,N
1541594195.7,286047004.0,N
1541594215.5,286047004.1,N
1541594235.4,286047006.9,N
1541594255.2,286047010.0,N
1541594275.0,286047009.5,N
1541594276.0,286047009.5,N
1541594295.8,286047007.8,N
1541594315.6,286047011.2,N
1541594335.5,286047010.8,N
1541594355.3,286047007.1,N
1541594375.1,286047005.2,N
1541594395.9,286047003.2,N
1541594415.7,286047009.0,N
1541594435.6,286047008.4,N
1541594455.4,286047008.9,N
1541594475.2,286047007.5,N
1541594495.1,286047004.5,N
1541594496.0,286047004.5,N
1541594515.8,286047006.3,N
1541594535.6,286047005.3,N
1541594555.5,286047004.0,N
1541594575.3,286047001.3,N
1541594595.2,286047000.2,N
1541594615.9,286047001.1,N
1541594635.7,286046999.4,N
1541594655.6,286046999.4,N
1541594675.4,286046997.0,N
1541594695.2,286046998.2,N
1541594715.1,286046998.3,N
1541594716.0,286046998.3,N
1541594735.8,286047000.5,N
1541594755.7,286047002.5,N
1541594775.5,286047001.6,N
1541594795.3,286047005.5,N
1541594815.2,286047003.8,N
1541594835.0,286047003.9,N
1541594835.9,286047003.9,N
1541594855.7,286047000.2,N
1541594875.6,286047001.1,N
1541594895.4,286046999.1,N
1541594915.3,286046997.2,N
1541594935.1,286046997.5,N
1541594936.0,286046997.5,N
1541594955.8,286046997.0,N
1541594975.7,286046998.8,N
1541594995.5,286047002.0,N
1541595015.3,286047000.3,N
1541595035.2,286047000.6,N
1541595055.0,286047000.1,N
1541595055.9,286047000.1,N
1541595075.8,286047000.5,N
1541595095.6,286047000.8,N
1541595115.4,286047001.0,N
1541595135.3,286046996.5,N
1541595155.1,286046998.0,N
1541595175.8,286046995.9,N
1541595195.7,286046994.2,N
1541595215.5,286046992.1,Y
1541595235.4,286046992.3,P
1541595255.2,286046994.4,N
1541595275.0,286046992.8,N
1541595275.9,286046992.8,N
1541595295.8,286046993.2,N
1541595315.6,286046990.6,Y
1541595335.4,286046996.7,P
1541595355.3,286046999.1,N
1541595375.1,286046997.0,N
1541595395.9,286046998.0,N
1541595415.7,286046995.5,N
1541595435.5,286046995.2,Y
1541595455.4,286046997.7,P
1541595475.2,286046997.3,P
1541595495.0,286046997.8,P
1541595496.0,286046997.8,Y
1541595515.8,286046998.6,P
1541595535.6,286046999.1,N
1541595555.5,286047000.2,N
1541595575.3,286047001.9,N
1541595595.1,286047002.7,N
